Location: Kapla
(46.2483°N, 15.0094°E)
Time: 22:38:17
(UTC+00:00)

Nadezhda 3 Rocket - Visible Passes

Search period start: 24 June 2021 00:00
Search period end: 04 July 2021 00:00
Orbit: 956 x 1000 km, 82.9° (Epoch: 24 June)

Date Brightness Start Highest point End Pass type
(mag) Time Alt. Az. Time Alt. Az. Time Alt. Az.
26 Jun 7.4 19:49:14 10° WNW 19:51:07 11° WNW 19:53:02 10° NW visible
29 Jun 7.4 02:15:51 10° NE 02:17:51 11° ENE 02:19:49 10° ENE visible
02 Jul 7.4 01:50:07 10° NE 01:50:48 10° NE 01:51:30 10° ENE visible
03 Jul 6.8 02:13:29 10° NNE 02:17:42 18° ENE 02:21:56 10° ESE visible
